Temp
17 18 18 18 19 19 19 20 20 21 21 22 23 23 24 25 26 26 27 27 26 26 25 24 23 22 21 22 21 20 18 20 21 22 22 24 23 23 23 22 22 22 21 20 19
17 18 18 18 19 19 19 20 20 21 22 22 23 23 24 25 27 27 28 27 27 26 26 24 23 22 22 21 20 20 19 22 22 21 22 24 24 24 23 22 22 21 21 20 20
17 18 18 18 19 19 20 20 21 21 22 22 23 23 24 25 27 28 28 28 27 26 26 24 23 23 22 21 21 21 21 22 23 22 22 23 24 25 22 21 21 20 21 20 19
17 18 18 18 19 19 20 20 21 21 22 22 23 24 24 25 25 28 28 27 27 26 25 24 24 23 20 21 21 23 23 23 25 23 23 23 23 23 23 23 23 24 23 21 19
17 18 18 18 19 20 20 20 21 22 22 23 23 24 25 25 27 28 28 27 27 26 26 25 24 23 22 21 22 22 24 23 24 23 23 23 23 23 23 24 23 23 22 22 21
17 18 18 19 19 20 21 21 21 22 23 23 23 24 24 24 28 27 28 28 27 26 26 26 26 25 24 22 23 24 24 24 23 23 22 22 23 23 24 24 22 22 22 22 22
18 18 19 19 19 20 21 21 22 23 23 23 23 24 24 27 27 27 27 27 27 27 27 26 26 25 25 23 24 25 23 23 23 22 22 23 23 22 24 24 21 22 23 22 21
18 18 19 19 20 21 21 21 23 23 24 23 23 24 25 27 27 27 26 26 26 25 26 25 25 25 25 27 25 25 23 22 24 24 24 24 21 22 23 22 21 20 22 22 21
18 19 19 20 20 21 21 22 23 23 23 23 23 23 25 26 26 26 26 26 26 26 25 25 24 25 26 24 22 22 23 23 25 25 24 23 22 23 23 23 21 21 21 21 21
18 19 20 20 21 21 22 22 22 22 22 22 22 23 25 26 26 27 27 25 26 27 24 23 24 22 20 21 22 24 24 25 25 23 23 22 22 22 23 23 23 21 21 22 22
19 19 20 20 21 21 22 22 22 22 22 23 23 24 25 26 26 27 27 26 25 26 23 25 23 23 23 23 24 24 23 23 25 25 24 22 23 22 22 23 23 23 22 23 24
18 19 19 20 21 21 21 21 19 19 19 23 23 23 25 25 26 27 27 27 26 24 25 23 23 23 24 23 23 22 23 24 25 24 24 22 23 22 22 23 23 23 23 24 24
18 19 19 20 21 21 21 20 21 21 18 22 23 24 26 26 27 27 27 27 25 25 25 23 25 24 26 26 26 24 24 26 26 24 24 23 23 22 22 23 23 23 24 24 25
18 19 20 20 21 21 21 21 22 22 16 22 23 25 26 27 26 28 28 28 26 24 23 23 24 27 27 26 24 26 27 26 24 23 24 24 22 23 21 22 22 23 23 24 24
19 20 20 20 21 21 21 22 22 22 21 25 24 26 26 27 27 27 28 28 24 25 23 24 26 27 26 27 26 26 26 25 24 23 23 23 22 22 20 21 22 23 23 24 24
20 20 20 21 21 21 22 22 22 19 23 26 25 25 25 26 27 26 27 28 27 24 23 23 25 26 25 27 26 27 27 21 19 19 22 22 22 22 21 23 23 23 23 24 25
21 21 21 21 21 21 22 22 18 20 24 25 25 25 25 25 26 26 25 25 23 23 23 23 24 25 26 27 26 24 21 21 24 21 23 19 22 23 24 24 24 24 24 24 25
21 21 21 21 21 21 22 18 20 24 24 24 23 24 25 25 25 24 23 23 23 21 19 22 24 25 26 26 28 26 22 20 26 22 22 21 23 26 26 25 25 25 24 24 24
22 21 21 21 21 21 21 17 21 23 24 24 23 22 23 23 24 24 24 22 22 21 23 21 24 25 26 26 26 25 24 21 18 18 21 21 23 25 26 25 25 25 25 24 24
22 22 21 22 21 21 18 18 20 20 23 23 24 24 23 22 23 23 21 24 22 21 23 23 25 25 26 27 25 26 22 23 18 25 26 23 23 24 28 28 24 22 24 25 25
23 23 21 21 21 22 17 18 20 24 24 24 24 23 23 22 21 20 21 24 23 21 21 20 23 24 25 24 24 23 23 18 18 18 21 22 23 21 26 26 27 24 25 26 26
23 17 22 21 20 13 16 18 21 23 23 22 22 23 23 20 20 21 22 22 24 21 24 22 19 22 25 23 22 22 22 19 20 23 17 18 22 24 22 24 25 26 26 27 28
22 21 22 21 16 15 16 20 21 20 19 21 20 20 19 19 21 20 21 24 23 21 22 23 18 20 22 22 22 22 22 18 15 15 18 20 22 22 20 21 24 24 26 27 28
21 17 21 21 18 16 16 17 20 22 20 21 20 20 19 18 17 20 20 22 23 22 22 21 16 20 21 22 21 23 21 20 19 19 18 18 19 20 18 18 20 23 25 26 28
19 14 15 14 17 14 16 17 19 19 21 21 20 19 20 19 19 20 20 19 22 22 22 19 21 22 22 23 22 22 21 20 20 18 20 21 18 18 16 16 17 20 23 24 25
17 15 16 15 15 16 14 17 18 18 19 19 20 20 20 20 20 20 20 21 21 20 21 17 20 21 22 22 22 22 21 20 19 18 18 18 19 16 17 17 17 18 19 20 23
16 15 15 14 14 15 15 17 18 17 20 20 19 19 20 20 19 20 20 22 21 21 19 19 17 18 21 19 20 21 21 20 18 17 17 20 19 16 17 17 15 20 19 20 20
Height
1520 1519 1516 1514 1512 1509 1507 1505 1503 1500 1498 1496 1494 1492 1491 1490 1489 1489 1490 1494 1492 1493 1493 1494 1496 1497 1498 1498 1498 1498 1508 1516 1512 1509 1509 1505 1508 1511 1512 1514 1516 1518 1520 1524 1528
1520 1518 1515 1513 1510 1508 1506 1504 1502 1499 1497 1496 1492 1491 1490 1489 1487 1486 1489 1491 1492 1494 1493 1494 1496 1498 1499 1499 1501 1500 1509 1508 1503 1503 1505 1504 1508 1511 1514 1518 1519 1521 1525 1528 1530
1518 1516 1514 1511 1509 1506 1505 1503 1500 1498 1496 1494 1492 1490 1489 1489 1487 1486 1488 1490 1492 1494 1494 1495 1497 1499 1497 1499 1500 1501 1507 1503 1500 1500 1500 1502 1509 1511 1514 1520 1518 1519 1524 1528 1531
1517 1515 1512 1510 1507 1505 1503 1501 1498 1496 1494 1493 1491 1489 1489 1489 1495 1486 1488 1490 1492 1495 1495 1497 1498 1498 1497 1498 1500 1502 1502 1499 1488 1498 1500 1504 1508 1511 1512 1515 1519 1519 1524 1527 1532
1514 1512 1510 1507 1505 1502 1500 1499 1496 1494 1493 1491 1490 1489 1489 1489 1487 1487 1488 1491 1492 1495 1496 1497 1497 1497 1498 1497 1499 1500 1499 1497 1497 1500 1501 1506 1508 1511 1513 1515 1519 1522 1526 1529 1532
1511 1510 1507 1504 1502 1499 1497 1496 1493 1492 1491 1490 1489 1488 1488 1489 1487 1487 1489 1491 1492 1493 1495 1496 1498 1499 1497 1498 1499 1498 1499 1497 1499 1502 1503 1506 1509 1511 1511 1514 1517 1521 1525 1529 1532
1508 1506 1504 1501 1499 1496 1494 1492 1490 1489 1488 1488 1488 1487 1487 1487 1487 1488 1489 1491 1491 1492 1495 1498 1500 1502 1500 1498 1497 1499 1502 1501 1499 1503 1504 1506 1509 1506 1510 1513 1516 1520 1524 1528 1532
1504 1502 1499 1498 1496 1493 1491 1489 1487 1486 1485 1486 1486 1486 1485 1484 1486 1487 1489 1491 1492 1493 1496 1500 1502 1503 1502 1497 1498 1501 1504 1515 1495 1500 1503 1505 1518 1503 1507 1511 1516 1520 1524 1527 1532
1501 1499 1496 1494 1493 1490 1488 1486 1485 1484 1484 1484 1485 1486 1485 1484 1485 1487 1489 1491 1491 1493 1496 1500 1503 1503 1500 1501 1510 1507 1517 1511 1500 1495 1500 1505 1509 1503 1508 1512 1515 1519 1522 1526 1530
1498 1495 1493 1491 1489 1488 1486 1484 1484 1484 1484 1484 1484 1488 1485 1484 1484 1485 1488 1491 1493 1494 1498 1501 1502 1503 1505 1510 1529 1516 1511 1501 1503 1498 1499 1504 1503 1501 1505 1510 1514 1518 1521 1524 1527
1494 1492 1490 1488 1487 1486 1486 1484 1486 1485 1483 1481 1482 1481 1482 1483 1482 1484 1486 1490 1494 1496 1500 1498 1504 1511 1505 1503 1501 1503 1505 1504 1489 1486 1493 1500 1502 1499 1503 1508 1512 1515 1520 1522 1524
1491 1489 1487 1486 1485 1485 1485 1484 1486 1488 1482 1478 1478 1478 1480 1481 1482 1482 1486 1491 1493 1497 1495 1500 1506 1499 1498 1499 1500 1502 1504 1500 1487 1485 1492 1500 1501 1498 1498 1499 1503 1509 1515 1519 1522
1489 1486 1485 1484 1483 1484 1485 1486 1485 1484 1484 1476 1475 1476 1479 1481 1481 1481 1485 1487 1489 1495 1496 1505 1498 1494 1496 1496 1498 1498 1501 1495 1494 1491 1492 1498 1502 1497 1496 1498 1502 1506 1510 1516 1518
1486 1484 1483 1482 1485 1483 1485 1485 1485 1484 1494 1480 1475 1474 1477 1479 1481 1481 1484 1488 1490 1496 1498 1500 1493 1492 1494 1497 1498 1502 1487 1488 1495 1499 1511 1495 1525 1498 1495 1496 1497 1501 1505 1510 1514
1484 1482 1481 1481 1481 1483 1485 1484 1484 1485 1514 1475 1474 1475 1476 1479 1479 1480 1483 1486 1491 1494 1499 1501 1492 1492 1496 1491 1490 1496 1485 1488 1497 1504 1507 1508 1520 1502 1496 1501 1493 1493 1498 1504 1508
1482 1480 1480 1480 1480 1482 1483 1484 1485 1498 1503 1476 1473 1475 1477 1477 1478 1480 1482 1485 1487 1492 1495 1495 1490 1489 1487 1483 1483 1482 1488 1499 1508 1515 1532 1515 1518 1507 1502 1487 1486 1488 1491 1494 1500
1482 1480 1479 1479 1481 1481 1482 1483 1498 1507 1477 1482 1478 1474 1476 1479 1480 1480 1484 1488 1497 1509 1507 1496 1489 1483 1482 1485 1482 1487 1505 1535 1528 1539 1533 1518 1517 1498 1478 1474 1471 1473 1479 1486 1494
1484 1482 1480 1481 1482 1482 1482 1486 1504 1484 1483 1476 1477 1476 1481 1480 1481 1483 1490 1498 1491 1498 1516 1514 1512 1485 1478 1482 1484 1487 1501 1533 1532 1544 1533 1514 1518 1487 1467 1464 1462 1466 1473 1481 1488
1486 1484 1483 1483 1483 1483 1483 1501 1495 1486 1479 1480 1479 1488 1487 1483 1483 1485 1490 1497 1491 1491 1507 1515 1505 1481 1478 1476 1480 1492 1504 1499 1531 1538 1535 1522 1500 1473 1464 1464 1461 1466 1472 1475 1481
1487 1487 1486 1486 1484 1483 1485 1498 1489 1482 1479 1479 1491 1488 1495 1494 1491 1490 1499 1489 1491 1487 1486 1494 1505 1485 1480 1477 1480 1483 1490 1511 1525 1529 1527 1523 1515 1502 1470 1465 1467 1466 1469 1472 1477
1489 1489 1490 1488 1485 1484 1499 1498 1490 1482 1481 1483 1488 1492 1493 1495 1496 1501 1500 1489 1485 1485 1484 1492 1498 1496 1484 1493 1497 1495 1500 1514 1521 1531 1541 1540 1521 1477 1470 1466 1467 1468 1467 1468 1473
1490 1494 1493 1490 1489 1495 1499 1496 1491 1487 1484 1485 1487 1490 1493 1497 1501 1500 1500 1494 1486 1485 1487 1487 1504 1513 1500 1493 1491 1490 1500 1510 1526 1523 1539 1539 1519 1469 1468 1468 1468 1468 1468 1469 1471
1494 1496 1495 1493 1506 1505 1498 1496 1494 1491 1491 1491 1495 1495 1495 1502 1505 1502 1498 1489 1488 1487 1489 1487 1510 1524 1515 1505 1494 1499 1499 1507 1518 1526 1534 1536 1516 1470 1475 1478 1474 1473 1469 1468 1470
1496 1501 1499 1498 1502 1504 1505 1505 1501 1497 1497 1496 1498 1496 1498 1506 1504 1505 1500 1491 1489 1488 1484 1485 1508 1510 1524 1512 1505 1503 1505 1506 1509 1526 1528 1526 1509 1483 1482 1481 1474 1470 1471 1469 1467
1499 1507 1509 1511 1506 1507 1506 1509 1506 1505 1500 1500 1501 1502 1503 1510 1509 1507 1502 1498 1491 1491 1487 1491 1507 1502 1502 1498 1499 1502 1504 1505 1508 1512 1517 1508 1511 1497 1493 1487 1480 1474 1469 1470 1471
1504 1509 1510 1511 1510 1509 1510 1513 1511 1507 1506 1507 1507 1505 1503 1507 1507 1509 1504 1502 1500 1495 1495 1498 1509 1506 1508 1503 1500 1503 1500 1504 1508 1509 1508 1506 1504 1500 1491 1485 1479 1476 1476 1480 1472
1510 1511 1511 1513 1512 1513 1516 1513 1512 1509 1507 1506 1506 1505 1504 1504 1502 1499 1499 1498 1497 1499 1501 1503 1510 1516 1518 1511 1509 1516 1502 1503 1507 1509 1510 1505 1503 1499 1494 1486 1484 1477 1477 1478 1479
Wind_Speed
16 16 16 16 16 15 15 14 14 13 13 11 9 9 7 4 6 9 10 4 10 10 9 9 7 7 3 1 2 2 4 2 2 1 2 4 4 10 6 16 4 5 18 26 26
17 17 17 17 16 16 15 14 14 14 13 11 9 8 7 4 8 12 7 10 11 10 7 9 7 4 2 1 3 3 3 2 5 5 2 5 9 13 5 15 6 12 21 27 28
18 18 18 17 17 17 15 14 14 13 12 10 8 8 6 3 4 3 9 11 11 11 6 9 4 1 2 2 2 2 3 5 7 7 5 5 10 3 16 5 9 24 29 30 28
18 18 18 18 18 17 16 14 14 13 11 10 8 7 4 2 4 1 9 11 13 10 8 10 5 2 2 3 2 4 6 5 4 8 5 3 4 3 19 3 14 27 30 31 29
19 19 19 19 18 17 16 15 14 13 11 9 6 5 2 3 3 2 11 12 11 11 10 9 5 3 1 2 3 1 3 6 5 4 4 2 4 4 14 3 16 27 29 29 29
20 20 19 19 19 18 16 15 14 12 10 8 5 4 2 2 8 6 8 8 9 13 12 11 1 1 3 1 2 2 3 3 7 4 5 2 1 5 4 15 26 28 30 30 29
22 21 20 19 19 18 16 15 14 11 9 7 5 4 5 6 9 9 7 3 7 11 11 12 9 5 7 4 8 6 2 4 5 7 3 7 3 7 10 24 31 32 30 30 31
22 22 21 19 18 17 15 15 12 9 6 5 4 3 3 9 11 12 9 8 8 12 14 9 7 14 9 8 2 6 5 2 5 11 5 12 6 5 17 31 28 30 32 32 32
21 21 20 18 17 16 14 12 7 3 2 2 3 3 2 12 11 12 11 6 7 11 14 9 6 7 4 2 5 5 3 5 1 17 6 6 4 6 20 24 24 28 32 34 33
20 19 18 16 15 14 11 6 3 3 2 2 4 1 5 6 5 11 15 13 2 4 9 10 6 2 3 5 3 5 5 5 5 8 7 6 5 8 20 21 23 26 30 34 32
19 17 15 13 12 10 6 2 2 2 5 5 2 2 3 1 7 7 16 16 13 5 4 4 3 2 6 5 6 4 5 9 3 9 6 9 5 9 18 18 18 22 29 32 31
19 16 13 11 8 5 6 6 8 6 7 8 10 15 14 7 2 7 17 11 7 4 0 5 5 6 4 5 6 6 5 6 2 7 4 7 8 5 17 23 29 27 28 36 32
18 15 12 8 5 4 5 6 9 5 1 5 4 9 8 8 4 10 17 8 4 3 0 5 4 4 2 2 4 3 3 4 3 4 2 5 4 7 8 14 23 28 35 34 36
17 14 9 5 2 5 5 5 7 4 4 4 3 3 10 7 2 11 16 9 2 7 3 5 4 2 1 4 4 4 0 3 4 3 2 1 4 4 4 13 16 25 32 37 34
16 12 7 2 2 5 3 2 5 2 4 1 2 8 12 7 6 6 16 11 8 4 5 6 2 2 2 4 5 8 5 4 1 3 3 4 3 5 7 9 16 24 32 41 41
13 9 4 1 2 7 5 4 2 5 3 3 5 5 5 1 2 4 6 6 4 5 2 7 2 4 6 4 7 1 3 8 5 4 3 4 4 4 5 10 15 21 31 41 45
12 8 4 1 5 3 2 2 4 5 3 5 2 3 2 3 0 3 5 3 5 4 3 5 4 4 4 3 2 4 6 3 4 5 4 4 2 8 7 8 14 25 34 39 44
11 11 7 4 4 2 2 4 7 3 3 2 3 3 4 1 2 2 4 2 0 5 3 3 5 5 2 5 4 1 7 5 2 2 4 2 4 5 4 12 16 29 34 35 39
11 9 10 7 3 5 2 5 3 2 3 4 3 7 6 5 2 3 4 3 6 9 6 3 5 4 3 2 6 2 2 4 7 3 2 3 7 9 2 6 4 14 25 34 38
6 9 13 7 7 9 4 2 3 3 5 4 4 2 4 6 4 4 5 2 5 8 2 5 2 1 6 3 4 2 6 4 4 1 2 4 5 5 5 3 3 9 20 29 36
6 5 10 12 12 5 4 3 4 8 6 6 2 3 2 3 4 5 4 4 4 6 7 5 3 7 3 6 3 3 4 7 5 4 5 1 6 6 6 3 3 6 20 26 31
10 3 9 13 7 3 3 4 8 9 11 7 5 4 4 6 6 4 4 3 18 4 4 1 5 1 2 6 3 4 4 4 5 3 1 3 6 2 8 1 5 1 13 18 21
4 4 9 13 4 4 7 5 8 9 7 6 7 6 5 4 4 4 5 9 13 8 2 3 2 3 6 6 4 6 3 4 5 3 3 5 6 6 14 12 18 11 7 11 17
3 3 5 7 7 2 5 6 5 8 7 7 4 5 6 8 6 4 8 4 13 12 12 2 3 5 6 5 3 3 4 1 5 3 2 5 8 9 17 14 19 22 18 12 15
6 2 3 3 6 5 2 4 6 7 8 15 6 5 2 4 5 4 2 6 6 12 9 4 3 2 1 1 4 3 2 4 2 5 5 3 5 6 12 11 12 20 20 6 5
5 4 3 3 4 4 5 5 5 6 5 5 3 4 3 3 1 4 1 1 4 6 4 5 0 2 1 5 1 3 1 5 2 1 3 5 3 6 12 11 22 25 25 19 29
10 7 3 6 4 3 2 3 4 6 0 5 3 1 2 2 15 18 16 11 6 3 1 1 4 2 3 3 4 3 3 2 2 0 3 0 1 6 7 14 10 20 23 23 23
Wind_Direction
349 348 347 345 345 346 345 345 342 340 341 342 338 323 309 283 262 254 247 181 196 181 180 163 122 128 183 354 40 63 63 60 89 89 291 104 97 154 139 145 106 53 144 152 155
346 344 343 342 341 341 342 341 338 336 337 342 333 326 319 298 260 246 214 185 194 189 197 184 145 151 213 10 70 60 97 107 182 176 188 177 143 159 122 159 94 110 146 159 157
341 340 339 338 337 337 337 337 332 330 331 335 331 330 327 324 241 255 211 187 183 186 186 182 194 244 321 47 66 99 110 181 201 195 142 85 142 171 141 194 188 154 160 168 167
336 335 335 334 333 332 332 331 326 323 325 328 330 329 325 139 183 199 179 171 174 186 185 179 222 311 16 4 115 111 135 217 167 172 93 91 131 92 166 160 198 166 167 169 176
332 332 331 330 330 329 328 327 321 315 316 318 320 326 307 222 199 134 169 182 194 194 202 205 208 191 311 261 85 44 192 182 280 21 23 192 202 162 202 227 178 169 173 177 183
328 328 328 327 327 326 326 324 315 307 304 301 301 306 254 229 172 188 164 180 211 212 213 216 270 19 332 249 160 220 233 216 218 212 246 213 221 199 226 193 175 176 179 186 189
326 325 326 325 325 325 326 323 311 302 291 282 275 275 247 191 187 193 195 212 263 248 242 239 242 318 341 318 234 139 105 334 277 176 253 158 309 239 230 179 170 181 184 192 197
323 322 323 325 324 324 328 322 316 304 277 265 251 255 234 193 190 194 203 225 256 240 243 259 308 275 263 285 72 145 114 173 216 157 242 154 262 230 169 166 168 179 190 200 202
320 320 321 322 323 324 333 327 332 321 178 227 234 225 205 199 208 205 206 219 256 227 236 243 321 254 275 44 12 1 257 213 287 179 149 203 203 163 171 167 166 182 192 203 209
321 321 321 322 323 328 341 334 39 94 116 242 232 230 187 186 220 228 212 213 178 200 251 235 229 149 24 61 266 280 291 249 180 204 178 193 200 157 177 184 180 181 195 202 208
322 322 322 320 322 334 14 141 311 270 265 226 266 285 254 153 188 195 200 201 228 232 185 190 168 183 231 214 237 255 242 260 187 182 152 199 195 173 180 187 196 202 188 199 206
323 322 321 317 318 341 54 85 44 316 309 285 254 251 244 265 256 178 193 171 174 199 19 14 278 202 222 227 233 243 266 281 317 155 128 165 227 201 187 198 196 201 210 206 206
327 323 322 318 312 149 103 52 7 350 255 291 234 236 227 208 214 172 174 180 124 125 125 165 238 313 207 308 324 293 216 294 261 88 69 156 262 180 195 191 198 205 213 216 213
327 325 326 327 171 166 153 17 353 318 61 280 260 200 168 168 231 192 193 181 70 189 172 252 278 239 6 321 130 329 225 274 146 116 213 326 271 254 179 189 195 202 208 216 218
328 329 326 300 217 170 188 343 321 273 73 239 124 151 167 170 140 191 193 188 165 169 104 255 225 281 308 226 177 244 53 99 100 51 58 354 46 270 132 204 204 204 206 215 220
341 345 331 308 188 180 222 282 286 44 65 39 126 154 125 290 63 107 159 191 155 138 13 238 261 256 215 235 195 306 110 41 45 65 26 267 128 281 189 213 213 210 208 211 218
5 9 354 139 144 178 262 257 45 88 324 346 45 141 142 147 291 130 164 182 149 97 281 317 250 271 207 298 27 90 58 343 5 22 207 348 26 241 232 229 204 204 204 207 214
19 21 39 79 127 99 6 56 71 264 277 352 46 84 115 123 210 107 77 142 310 88 109 161 340 192 161 212 210 204 148 152 212 171 267 351 241 262 225 296 234 206 205 202 204
22 42 58 68 50 354 341 52 187 228 302 21 43 56 349 8 97 80 146 171 230 170 182 148 282 299 194 239 127 160 140 166 104 9 38 265 290 303 315 348 132 170 187 199 204
46 51 41 35 360 339 71 240 282 227 330 62 90 45 1 323 68 51 16 112 319 207 215 204 345 304 294 70 49 165 150 57 13 143 257 297 295 243 316 53 72 151 179 195 205
57 67 10 357 346 11 81 290 312 331 347 44 73 53 10 10 51 25 347 288 34 307 166 140 92 291 25 20 311 5 26 51 115 107 162 260 275 224 234 118 87 205 195 197 206
53 47 1 358 33 44 24 332 339 339 32 39 87 53 48 29 39 61 14 257 343 314 117 272 127 199 118 317 305 69 94 109 109 258 109 144 279 250 268 120 342 148 203 209 206
63 57 28 15 61 341 328 347 32 18 22 26 25 34 37 45 77 34 322 311 8 25 87 179 12 61 356 347 354 56 20 100 107 80 192 135 259 354 13 11 353 314 233 216 215
70 44 33 52 49 87 8 354 3 33 50 55 29 64 48 26 12 10 349 323 344 7 36 90 104 148 183 199 172 64 3 54 114 102 204 226 298 335 347 344 340 338 329 284 210
53 67 33 359 356 23 51 1 354 14 18 25 20 42 78 38 5 356 330 322 346 10 20 69 77 28 349 175 115 133 76 359 111 161 171 215 291 335 331 323 352 31 34 23 201
69 44 52 45 337 23 7 358 20 332 28 349 55 324 23 103 85 289 331 320 263 346 37 2 73 61 343 297 305 119 171 105 16 278 235 289 279 343 351 36 42 44 53 42 74
45 36 35 2 6 75 332 323 1 341 85 68 327 357 24 306 308 283 255 264 265 317 120 62 130 90 201 1 354 349 251 126 124 28 275 31 325 329 356 31 7 76 73 65 76